Weather History for Norwood, MA

Change the Weather History Date:

Sunday, August 11, 2013

  Actual Average Record
Temperature  
Mean Temperature 65 °F -  
Max Temperature 80 °F 80 °F 93 °F (2002)
Min Temperature 51 °F 59 °F 42 °F (2007)
Growing Degree Days 15 (Base 50)    
Moisture  
Dew Point 53 °F    
Average Humidity 76    
Maximum Humidity 100    
Minimum Humidity 37    
Precipitation  
Precipitation 0.00 in - - ()
Sea Level Pressure  
Sea Level Pressure 30.05 in    
Wind  
Wind Speed 1 mph (West)    
Max Wind Speed 12 mph    
Max Gust Speed 16 mph    
Visibility 7 miles    
Events Fog    
Averages and records for this station are not official NWS values.
T = Trace of Precipitation, MM = Missing Value Source: NWS Daily Summary

Daily Weather History Graph

Daily Weather History Graph

Search for Another Location

Airport:

Trip Planner

Search our weather history database for the weather conditions in past years. The results will help you decide how hot, cold, wet, or windy it might be!

Date:

Astronomy

Aug. 11, 2013 Rise Set
Actual Time 5:48 AM EDT 7:50 PM EDT
Civil Twilight 5:17 AM EDT 8:21 PM EDT
Nautical Twilight 4:40 AM EDT 8:58 PM EDT
Astronomical Twilight 3:59 AM EDT 9:39 PM EDT
Moon 10:39 AM EDT (8/11) 9:57 PM EDT (8/11)
Length of Visible Light 15h 03m
Length of Day
14h 02m
Waxing Crescent, 22% of the Moon is Illuminated
Aug 11
Waxing Crescent
Aug 14
First Quarter
Aug 20
Full
Aug 28
Last Quarter
Sep 5
New

Hourly Weather History & Observations

Time (EDT) Temp. Dew Point Humidity Pressure Visibility Wind Dir Wind Speed Gust Speed Precip Events Conditions
12:53 AM 55.9 °F 54.0 °F 93% 30.01 in 10.0 mi Calm Calm - N/A   Clear
1:53 AM 55.9 °F 54.0 °F 93% 30.03 in 10.0 mi Calm Calm - N/A   Clear
2:23 AM 55.4 °F 53.6 °F 94% 30.03 in 1.8 mi Calm Calm - N/A   Clear
2:30 AM 55.4 °F 53.6 °F 94% 30.03 in 3.0 mi Calm Calm - N/A   Clear
2:53 AM 55.0 °F 52.0 °F 89% 30.04 in 10.0 mi Calm Calm - N/A   Clear
3:53 AM 54.0 °F 52.0 °F 93% 30.05 in 10.0 mi Calm Calm - N/A   Clear
4:38 AM 53.6 °F 51.8 °F 94% 30.05 in 2.0 mi Calm Calm - N/A   Clear
4:53 AM 53.1 °F 51.1 °F 93% 30.06 in 2.0 mi Calm Calm - N/A   Partly Cloudy
4:57 AM 51.8 °F 51.8 °F 100% 30.05 in 1.0 mi Calm Calm - N/A   Mist
5:04 AM 51.8 °F 50.0 °F 94% 30.06 in 2.0 mi Calm Calm - N/A   Partly Cloudy
5:11 AM 51.8 °F 51.8 °F 100% 30.06 in 10.0 mi Calm Calm - N/A   Partly Cloudy
5:43 AM 51.8 °F 50.0 °F 94% 30.06 in 1.5 mi Calm Calm - N/A   Partly Cloudy
5:50 AM 53.6 °F 51.8 °F 94% 30.06 in 0.5 mi Calm Calm - N/A Fog Fog
5:53 AM 53.1 °F 51.1 °F 93% 30.06 in 0.8 mi Calm Calm - N/A   Mist
5:55 AM 53.6 °F 51.8 °F 94% 30.07 in 1.8 mi Calm Calm - N/A   Partly Cloudy
6:02 AM 53.6 °F 51.8 °F 94% 30.07 in 9.0 mi Calm Calm - N/A   Partly Cloudy
6:18 AM 51.8 °F 51.8 °F 100% 30.07 in 2.0 mi Calm Calm - N/A   Scattered Clouds
6:22 AM 53.6 °F 51.8 °F 94% 30.07 in 1.8 mi Calm Calm - N/A   Mostly Cloudy
6:34 AM 53.6 °F 51.8 °F 94% 30.07 in 3.0 mi Calm Calm - N/A   Mostly Cloudy
6:44 AM 55.4 °F 53.6 °F 94% 30.08 in 10.0 mi Calm Calm - N/A   Scattered Clouds
6:53 AM 57.0 °F 54.0 °F 89% 30.08 in 10.0 mi Calm Calm - N/A   Partly Cloudy
7:53 AM 63.0 °F 55.0 °F 75% 30.09 in 10.0 mi SW 3.5 mph - N/A   Clear
8:53 AM 69.1 °F 54.0 °F 58% 30.08 in 10.0 mi WSW 3.5 mph - N/A   Clear
9:53 AM 73.0 °F 52.0 °F 48% 30.08 in 10.0 mi NW 6.9 mph - N/A   Clear
10:53 AM 75.0 °F 50.0 °F 41% 30.07 in 10.0 mi NW 10.4 mph - N/A   Partly Cloudy
11:53 AM 75.9 °F 48.9 °F 38% 30.06 in 10.0 mi Calm Calm - N/A   Clear
12:53 PM 77.0 °F 48.9 °F 37% 30.05 in 10.0 mi West 3.5 mph 16.1 mph N/A   Clear
1:53 PM 77.0 °F 50.0 °F 39% 30.04 in 10.0 mi SW 5.8 mph - N/A   Clear
2:53 PM 78.1 °F 53.1 °F 42% 30.03 in 10.0 mi WNW 11.5 mph 16.1 mph N/A   Clear
3:53 PM 78.1 °F 53.1 °F 42% 30.02 in 10.0 mi WSW 9.2 mph - N/A   Scattered Clouds
4:53 PM 79.0 °F 53.1 °F 40% 30.01 in 10.0 mi WSW 5.8 mph - N/A   Scattered Clouds
5:53 PM 78.1 °F 54.0 °F 43% 30.00 in 10.0 mi Variable 5.8 mph - N/A   Partly Cloudy
6:53 PM 75.9 °F 54.0 °F 46% 30.00 in 10.0 mi West 6.9 mph - N/A   Scattered Clouds
7:53 PM 72.0 °F 55.0 °F 55% 30.01 in 10.0 mi WSW 3.5 mph - N/A   Clear
8:53 PM 64.0 °F 57.9 °F 80% 30.01 in 10.0 mi Calm Calm - N/A   Clear
9:53 PM 62.1 °F 57.9 °F 86% 30.04 in 10.0 mi Calm Calm - N/A   Clear
10:53 PM 66.0 °F 57.9 °F 75% 30.04 in 10.0 mi WSW 4.6 mph - N/A   Clear
11:53 PM 64.9 °F 57.0 °F 75% 30.04 in 10.0 mi SW 3.5 mph - N/A   Clear